Location: La Chapelle
(48.3135°N, 1.3085°W)
Time: 07:08:11
(UTC+00:00)

BREEZE-M DEB (TANK) - Pass Details

Date: 03 March 2021
Orbit: 308 x 15403 km, 49.5° (Epoch: 11 April)

Event Time Altitude Azimuth Distance (km) Brightness Sun altitude
Rises 19:45:16 0° 278° (W) 2,078 6.9 -19.4°
Reaches altitude 10° 19:46:39 10° 280° (W) 1,379 5.6 -19.7°
Maximum altitude 19:49:12 75° 7° (N) 565 2.3 -20.1°
Enters shadow 19:50:12 48° 80° (E) 834 2.8 -20.2°
